Regional Weather Roundup
Issued by NWS

Home | Current Version | Previous Version | Graphics & Text | Print | Product List | Glossary On
Versions: 1 2 3 4 5 6 7 8 9 10 11 12 13 14 15 16 17 18 19 20 21 22 23 24 25 26 27
000
ASUS45 KCYS 021010
RWRWY

WYOMING REGIONAL WEATHER ROUNDUP
NATIONAL WEATHER SERVICE CHEYENNE WY
400 AM MDT MON MAY 02 2016

NOTE:  "FAIR" INDICATES FEW OR NO CLOUDS BELOW 12,000 FEET
WITH NO SIGNIFICANT WEATHER AND/OR OBSTRUCTIONS TO VISIBILITY.

WYZ001-021100-
YELLOWSTONE NATIONAL PARK

CITY           SKY/WX    TMP DP  RH WIND       PRES   REMARKS
LK YELLOWSTONE   N/A     22  17  81 CALM      30.29F
W YELLOWSTONE  NOT AVBL

$$
WYZ002>013-054>058-071-098>099-021100-
NORTHERN WYOMING

CITY           SKY/WX    TMP DP  RH WIND       PRES   REMARKS
JACKSON        FAIR      30  25  80 CALM      30.26R
CODY           FAIR      41  27  56 W8        30.21F
GREYBULL       FAIR      39  29  67 SE3       30.22S
WORLAND        FAIR      37  31  78 SE9       30.23S WCI  30
SHERIDAN       FAIR      33  28  81 CALM      30.18F
BUFFALO          N/A    N/A N/A N/A MISG      30.20F
GILLETTE       FAIR      35  29  78 S8        30.20S WCI  29
HULETT         FAIR      36  30  80 SW6       30.20F WCI  31
NEWCASTLE      FAIR      30  27  86 CALM      30.22S

$$
WYZ014>020-022>026-101>103-021100-
CENTRAL WYOMING

CITY           SKY/WX    TMP DP  RH WIND       PRES   REMARKS
BIG PINEY      FAIR      19  14  81 N7        30.28S WCI  10
PINEDALE       FAIR      21  18  86 NW3       30.29R
DUBOIS         NOT AVBL
LANDER         FAIR      35  19  52 SW5       30.25S WCI  31
RIVERTON       FAIR      34  26  72 NW12      30.26S WCI  25
CASPER         FAIR      32  24  72 SW10      30.25R WCI  24
DOUGLAS        FAIR      27  25  92 NW5       30.25S WCI  22

$$
WYZ021-027>030-104>119-021100-
SOUTHERN WYOMING

CITY           SKY/WX    TMP DP  RH WIND       PRES   REMARKS
EVANSTON       FAIR      31  22  69 NE10      30.24R WCI  22
FORT BRIDGER   SUNNY     28  27  93 NE7       30.29R WCI  21
ROCK SPRINGS   FAIR      28  21  75 N5        30.25S WCI  23
DIXON          FAIR      25  21  85 CALM      30.24S
RAWLINS        FAIR      24  19  81 NE9       30.25R WCI  14
SARATOGA       FAIR      23  19  86 SE7       30.24S WCI  15
LARAMIE        FAIR      16  13  88 S8        30.24S WCI   5
CHEYENNE       FAIR      27  20  75 W10       30.23S WCI  17
TORRINGTON     FAIR      30  28  92 W5        30.22F WCI  25
PINE BLUFFS    FAIR      27  23  86 CALM      30.25S

$$




USA.gov is the U.S. government's official web portal to all federal, state and local government web resources and services.